Hourly Data Report for September 20, 2017

All times are specified in Local Standard Time (LST). Add 1 hour to adjust for Daylight Saving Time where and when it is observed.

COMOX A
BRITISH COLUMBIA

49°43'00.000" N
124°54'00.000" W
25.60 m
1021830
71893
YQQ

Download Data

Hourly Data (September 2017)
Hourly Data Report for September 20, 2017
Temp Definition
°C
Dew Point Temp Definition
°C
Rel Hum Definition
%
Wind Dir Definition
10's deg

Wind Spd Definition
km/h
Visibility Definition
km
Stn Press Definition
kPa
Hmdx Definition


Wind Chill Definition


Weather Definition


TIME
00:00 7.1 6.2 94 28 4 32.2 100.24     Mainly Clear
01:00 7.5 6.1 91 28 7 32.2 100.21     Mainly Clear
02:00 7.7 6.2 90 31 6 32.2 100.21     Mostly Cloudy
03:00 7.9 6.5 91 31 4 32.2 100.19     Mostly Cloudy
04:00 8.7 6.6 87 31 9 32.2 100.20     Mostly Cloudy
05:00 8.9 6.9 87 34 13 32.2 100.22     Mostly Cloudy
06:00 8.9 6.7 86 32 11 32.2 100.24     Mostly Cloudy
07:00 8.0 6.2 88 30 9 32.2 100.26     Mainly Clear
08:00 10.2 6.2 76 30 6 32.2 100.27     Mainly Clear
09:00 11.5 6.2 70 34 20 32.2 100.28     Mainly Clear
10:00 11.7 7.6 76 35 19 32.2 100.32     Mostly Cloudy
11:00 12.4 7.5 72 34 19 32.2 100.36     Mostly Cloudy
12:00 13.6 8.1 69 1 17 32.2 100.36     Mainly Clear
13:00 14.2 8.0 66 36 17 32.2 100.36     Mainly Clear
14:00 14.7 7.6 62 4 13 32.2 100.37     Mainly Clear
15:00 15.0 7.4 60 35 11 32.2 100.38     Mostly Cloudy
16:00 14.9 7.1 60 36 9 32.2 100.37     Mostly Cloudy
17:00 15.3 6.9 57 29 6 32.2 100.40     Mostly Cloudy
18:00 14.8 6.8 59 30 6 32.2 100.42     Cloudy
19:00 13.9 8.8 71 24 4 32.2 100.47     Cloudy
20:00 13.7 9.2 74 33 15 32.2 100.53     Cloudy
21:00 12.9 8.4 74 29 6 32.2 100.54     Cloudy
22:00 11.6 7.7 77 31 9 32.2 100.57     Mostly Cloudy
23:00 11.2 7.9 80 32 6 32.2 100.63     Mostly Cloudy

Notes on Data Quality.

Legend

  • E = Estimated
  • M = Missing
  • NA = Not Available
  • ‡ = Partner data that is not subject to review by the National Climate Archives
Date modified: